This is the latest recevied weather packets stored in our database for station/object EA3GKP-10. If no packets are shown the sender has not sent any weather packets the latest 10 day(s).
| Time | Temp. | Humidity | Pressure | Rain* | Wind** | Luminosity | Snow |
|---|---|---|---|---|---|---|---|
| 1777929143 | 18.89° C | - | - | 0 mm | 1.34 m/s, 111° | - | - |
| 1777928537 | 19.44° C | - | - | 0 mm | 0.89 m/s, 148° | - | - |
| 1777927927 | 19.44° C | - | - | 0 mm | 0 m/s | - | - |
| 1777927618 | 18.89° C | - | - | 0 mm | 0 m/s | - | - |
| 1777927011 | 18.89° C | - | - | 0 mm | 0 m/s | - | - |
| 1777925796 | 19.44° C | - | - | 0 mm | 0 m/s | - | - |
| 1777925488 | 18.89° C | - | - | 0 mm | 0 m/s | - | - |
| 1777925185 | 18.89° C | - | - | 0 mm | 0 m/s | - | - |
| 1777924882 | 18.89° C | - | - | 0 mm | 0 m/s | - | - |
| 1777924276 | 18.89° C | - | - | 0 mm | 0.89 m/s, 98° | - | - |
| 1777923973 | 18.89° C | - | - | 0 mm | 0.89 m/s, 143° | - | - |
| 1777923670 | 18.89° C | - | - | 0 mm | 0.45 m/s, 127° | - | - |
| 1777923367 | 18.89° C | - | - | 0 mm | 0.89 m/s, 70° | - | - |
| 1777923061 | 19.44° C | - | - | 0 mm | 0.45 m/s, 51° | - | - |
| 1777922759 | 19.44° C | - | - | 0 mm | 0 m/s | - | - |
| 1777922456 | 19.44° C | - | - | 0 mm | 1.34 m/s, 131° | - | - |
| 1777922153 | 19.44° C | - | - | 0 mm | 0.89 m/s, 98° | - | - |
| 1777921850 | 19.44° C | - | - | 0 mm | 0.45 m/s, 174° | - | - |
| 1777921544 | 19.44° C | - | - | 0 mm | 1.34 m/s, 128° | - | - |
| 1777921240 | 19.44° C | - | - | 0 mm | 1.79 m/s, 124° | - | - |
| 1777920933 | 20° C | - | - | 0 mm | 1.34 m/s, 104° | - | - |
| 1777920323 | 20.56° C | - | - | 0 mm | 1.34 m/s, 159° | - | - |
| 1777919712 | 20° C | - | - | 0 mm | 1.34 m/s, 100° | - | - |
| 1777919404 | 21.11° C | - | - | 0 mm | 1.34 m/s, 93° | - | - |
| 1777919101 | 21.11° C | - | - | 0 mm | 1.34 m/s, 110° | - | - |
* Rain latest hour (hover to see other rain measurements)
** Current wind speed in m/s (hover to see current wind gust speed)